This is the latest recevied weather packets stored in our database for station/object XE1E-15. If no packets are shown the sender has not sent any weather packets the latest 10 day(s).
| Time | Temp. | Humidity | Pressure | Rain* | Wind** | Luminosity | Snow |
|---|---|---|---|---|---|---|---|
| 1777465657 | 23.33° C | 37% | 1024 hPa | - | - | - | - |
| 1777462777 | 22.78° C | 36% | 1023.7 hPa | - | - | - | - |
| 1777461817 | 22.78° C | 35% | 1023.6 hPa | - | - | - | - |
| 1777460857 | 23.33° C | 35% | 1023.4 hPa | - | - | - | - |
| 1777459897 | 23.33° C | 35% | 1023.3 hPa | - | - | - | - |
| 1777458936 | 23.33° C | 35% | 1023.3 hPa | - | - | - | - |
| 1777457976 | 23.89° C | 35% | 1023.4 hPa | - | - | - | - |
| 1777457016 | 23.33° C | 35% | 1023.2 hPa | - | - | - | - |
| 1777456056 | 23.33° C | 35% | 1023.3 hPa | - | - | - | - |
| 1777455096 | 23.33° C | 35% | 1023.4 hPa | - | - | - | - |
| 1777454136 | 23.33° C | 35% | 1023.6 hPa | - | - | - | - |
| 1777453175 | 23.89° C | 34% | 1023.7 hPa | - | - | - | - |
| 1777451255 | 23.89° C | 33% | 1023.8 hPa | - | - | - | - |
| 1777450295 | 24.44° C | 34% | 1023.9 hPa | - | - | - | - |
| 1777448375 | 24.44° C | 33% | 1024.1 hPa | - | - | - | - |
| 1777447896 | 24.44° C | 32% | 1024.1 hPa | - | - | - | - |
| 1777447028 | 24.44° C | 33% | 1024.2 hPa | - | - | - | - |
| 1777446936 | 24.44° C | 33% | 1024.2 hPa | - | - | - | - |
| 1777445976 | 25° C | 32% | 1024.3 hPa | - | - | - | - |
| 1777445049 | 24.44° C | 32% | 1024.5 hPa | - | - | - | - |
| 1777444056 | 25.56° C | 32% | 1024.7 hPa | - | - | - | - |
| 1777443096 | 25° C | 31% | 1024.7 hPa | - | - | - | - |
| 1777442136 | 25° C | 31% | 1024.9 hPa | - | - | - | - |
| 1777441176 | 25.56° C | 31% | 1025.1 hPa | - | - | - | - |
| 1777440216 | 25.56° C | 32% | 1024.9 hPa | - | - | - | - |
* Rain since midnight (hover to see other rain measurements)
** Current wind speed in m/s (hover to see current wind gust speed)